EW0395 Weather Reports


Display with metric or nautical units.
time (UTC)temp
F
wind
direction
speed
MPH
gust
MPH
rain 1hr
in
rain 24hr
in
rain mn
in
humidity
%
barometer
mb
20260831233041 65 0 0.0 0.0 0.00 0.00 0.00 79 1019.4
20260831231540 66 0 0.0 0.0 0.00 0.00 0.00 77 1019.5
20260831230042 67 0 0.0 0.0 0.00 0.00 0.00 73 1019.7
20260831224542 68 0 0.0 0.0 0.00 0.00 0.00 70 1019.8
20260831223044 69 0 0.0 0.0 0.00 0.00 0.00 69 1019.7
20260831221540 70 0 0.0 0.0 0.00 0.00 0.00 69 1019.6
20260831220045 71 0 0.0 0.0 0.00 0.00 0.00 69 1019.6
20260831214540 71 0 0.0 0.0 0.00 0.00 0.00 68 1019.6
20260831213039 71 0 0.0 0.0 0.00 0.00 0.00 67 1019.5
20260831211542 71 0 0.0 0.0 0.00 0.00 0.00 66 1019.4
20260831210041 72 0 0.0 0.0 0.00 0.00 0.00 65 1019.5
20260831204543 72 0 0.0 0.0 0.00 0.00 0.00 65 1019.7
20260831203103 72 0 0.0 0.0 0.00 0.00 0.00 63 1019.7
20260831201538 74 0 0.0 0.0 0.00 0.00 0.00 57 1019.5
20260831200114 74 0 0.0 0.0 0.00 0.00 0.00 56 1019.8
20260831194540 74 0 0.0 0.0 0.00 0.00 0.00 62 1019.8
20260831193040 75 0 0.0 0.0 0.00 0.00 0.00 56 1019.9
20260831191535 75 0 0.0 0.0 0.00 0.00 0.00 58 1020.0
20260831190041 74 0 0.0 0.0 0.00 0.00 0.00 56 1020.0
20260831184545 75 0 0.0 0.0 0.00 0.00 0.00 54 1020.0
20260831183036 75 0 0.0 0.0 0.00 0.00 0.00 55 1020.2
20260831181542 75 0 0.0 0.0 0.00 0.00 0.00 52 1020.3
20260831180041 75 0 0.0 0.0 0.00 0.00 0.00 48 1020.6
20260831174548 74 0 0.0 0.0 0.00 0.00 0.00 49 1020.7
20260831173038 74 0 0.0 0.0 0.00 0.00 0.00 50 1020.9
20260831171537 75 0 0.0 0.0 0.00 0.00 0.00 51 1021.0
20260831170042 73 0 0.0 0.0 0.00 0.00 0.00 55 1021.2
20260831164540 75 0 0.0 0.0 0.00 0.00 0.00 51 1021.4
20260831163041 76 0 0.0 0.0 0.00 0.00 0.00 47 1021.4
20260831161541 75 0 0.0 0.0 0.00 0.00 0.00 53 1021.5
20260831160040 74 0 0.0 0.0 0.00 0.00 0.00 56 1021.6
20260831154610 74 0 0.0 0.0 0.00 0.00 0.00 52 1021.7
20260831153038 73 0 0.0 0.0 0.00 0.00 0.00 52 1021.8
20260831151540 72 0 0.0 0.0 0.00 0.00 0.00 56 1021.8
20260831150038 71 0 0.0 0.0 0.00 0.00 0.00 56 1021.8
20260831144540 72 0 0.0 0.0 0.00 0.00 0.00 56 1021.9
20260831143040 72 0 0.0 0.0 0.00 0.00 0.00 60 1021.9
20260831141540 71 0 0.0 0.0 0.00 0.00 0.00 62 1022.0
20260831140039 69 0 0.0 0.0 0.00 0.00 0.00 69 1021.9
20260831134546 69 0 0.0 0.0 0.00 0.00 0.00 64 1021.8
20260831133037 67 0 0.0 0.0 0.00 0.00 0.00 72 1021.6
20260831131536 66 0 0.0 0.0 0.00 0.00 0.00 78 1021.5
20260831130042 66 0 0.0 0.0 0.00 0.00 0.00 79 1021.7
20260831124535 63 0 0.0 0.0 0.00 0.00 0.00 83 1021.7
20260831123041 63 0 0.0 0.0 0.00 0.00 0.00 86 1021.6
20260831121538 60 0 0.0 0.0 0.00 0.00 0.00 91 1021.5
20260831120039 56 0 0.0 0.0 0.00 0.00 0.00 99 1021.7
20260831114541 52 0 0.0 0.0 0.00 0.00 0.00 99 1021.7
20260831113049 51 0 0.0 0.0 0.00 0.00 0.00 99 1021.6
20260831111537 50 0 0.0 0.0 0.00 0.00 0.00 98 1021.2
20260831110036 50 0 0.0 0.0 0.00 0.00 0.00 98 1021.1
20260831104540 50 0 0.0 0.0 0.00 0.00 0.00 98 1021.2
20260831103043 50 0 0.0 0.0 0.00 0.00 0.00 98 1021.1
20260831101541 51 0 0.0 0.0 0.00 0.00 0.00 98 1021.1
20260831100042 51 0 0.0 0.0 0.00 0.00 0.00 98 1021.1
20260831094538 51 0 0.0 0.0 0.00 0.00 0.00 98 1021.1
20260831093040 52 0 0.0 0.0 0.00 0.00 0.00 98 1021.0
20260831091539 52 0 0.0 0.0 0.00 0.00 0.00 98 1020.9
20260831090039 52 0 0.0 0.0 0.00 0.00 0.00 97 1020.9
20260831084541 52 0 0.0 0.0 0.00 0.00 0.00 97 1020.6
20260831083042 52 0 0.0 0.0 0.00 0.00 0.00 97 1020.5
20260831081540 53 0 0.0 0.0 0.00 0.00 0.00 97 1020.4
20260831080041 53 0 0.0 0.0 0.00 0.00 0.00 97 1020.5
20260831074542 53 0 0.0 0.0 0.00 0.00 0.00 97 1020.5
20260831073042 54 0 0.0 0.0 0.00 0.00 0.00 96 1020.2
20260831071539 54 0 0.0 0.0 0.00 0.00 0.00 96 1020.0
20260831070052 55 0 0.0 0.0 0.00 0.00 0.00 96 1020.0
20260831064541 55 0 0.0 0.0 0.00 0.00 0.00 96 1020.0
20260831063042 56 0 0.0 0.0 0.00 0.00 0.00 95 1019.9
20260831061539 57 0 0.0 0.0 0.00 0.00 0.00 96 1020.0
20260831060037 58 0 0.0 0.0 0.00 0.00 0.00 95 1020.0
20260831054540 58 0 0.0 0.0 0.00 0.00 0.00 94 1020.0
20260831053039 59 0 0.0 0.0 0.00 0.00 0.00 94 1019.9
20260831051543 60 0 0.0 0.0 0.00 0.00 0.00 94 1019.9
20260831050044 60 0 0.0 0.0 0.00 0.00 0.00 95 1019.8
20260831044539 60 0 0.0 0.0 0.00 0.00 0.00 95 1019.6
20260831043041 60 0 0.0 0.0 0.00 0.00 0.00 95 1019.6
20260831041542 60 0 0.0 0.0 0.00 0.00 0.00 95 1019.4
20260831040040 60 0 0.0 0.0 0.00 0.00 0.00 95 1019.5
20260831034544 60 0 0.0 0.0 0.00 0.00 0.00 94 1019.5
20260831033059 61 0 0.0 0.0 0.00 0.00 0.00 93 1019.5
20260831031535 61 0 0.0 0.0 0.00 0.00 0.00 93 1019.6
20260831030042 62 0 0.0 0.0 0.00 0.00 0.00 93 1019.7
20260831024541 62 0 0.0 0.0 0.00 0.00 0.00 94 1019.5
20260831023036 62 0 0.0 0.0 0.00 0.00 0.00 94 1019.4
20260831021538 62 0 0.0 0.0 0.00 0.00 0.00 94 1019.2
20260831020055 62 0 0.0 0.0 0.00 0.00 0.00 93 1019.2
20260831014537 63 0 0.0 0.0 0.00 0.00 0.00 93 1019.1
20260831013036 63 0 0.0 0.0 0.00 0.00 0.00 91 1018.6
20260831011545 64 0 0.0 0.0 0.00 0.00 0.00 89 1018.7
20260831010041 65 0 0.0 0.0 0.00 0.00 0.00 88 1018.8
20260831004538 66 0 0.0 0.0 0.00 0.00 0.00 85 1018.5
20260831003041 65 0 0.0 0.0 0.00 0.00 0.00 84 1018.3
20260831001540 66 0 0.0 0.0 0.00 0.00 0.00 85 1018.0
20260831000046 66 0 0.0 0.0 0.00 0.00 0.00 84 1017.9
20260830234544 66 0 0.0 0.0 0.00 0.00 0.00 83 1017.7